AQI (41)

Current Conditions for Foresthill, CA. Clear skies, Dry   
Visibility: 10 miles
Space WX Alerts: ALERT:  Geomagnetic K-index of 5 ( Latest Alert ) - Issue Time: 2018 Jun 18 0256 UTC

  Summary / Temperature 

Current Temperature
64.8°F
18.2°C
(24/hr Ago)
63.9°F
(Apparent temp)
61.5°F
Comfortable
Wind Chill Graphs
64.8°F 

64.8°F/ 18.2°C
 --- Virtual Temp: 66.4°F ---

 Temp Rate:

 24/hr Difference:

 Avg Running Temp:

 Todays High:

 Todays Low:

 Y-days High:

 Y-days Low:

 Todays WChill:

 Y-days WChill:

 Evapotranspiration:

-0.9°F/hr 

+0.9°F

66.0°F

68.6°F 12:00am

64.8°F 4:00am

86.3°F 1:46pm

62.3°F 6:09am

64.8°F 4:03am

60.6°F 6:48am

0.009 in

115' Above Ground

 Temperature:

 6'AGL VRS 115'AGL:

 Avg Running Temp:

 Humidity:

 Todays High:

 Todays Low:

 Y-days High:

 Y-days Low:

67.0°F 

+2.2°F

68.2°F

31% 

71.0°F 12:00am

67.0°F 3:42am

87.0°F 5:20pm

65.0°F 4:44am

Temp & Humidity Graphs

  Wind 

Wind Speed

 Calm

Gusting to

 8.0 mph

Wind from ESE

102°  ESE

Calm

 Avg speed:

 Wind Run:

 Peak Gust:

  1.0 mph 

13.0 miles

  14.0 mph 1:13am

  Almanac  

Moon age: 9 days,9 hours,38 minutes,71%

Waxing Gibbous
71%
Illuminated
9 days in cycle

 Moonrise:

 Moonset:

 Sunrise:

 Sunset:

 Solar Noon:

3:28pm

2:23am

5:38am

8:32pm

1:06pm

0min 0s more daylight tomorrow 

  Solar Radiation 

(Current Solar)
  No Sun Light
(Todays High)
 None@12:00am

Rain

 Rain Today:

 Rain Rate (/hr):

 Rain last hour:

 Rain Yesterday:

 This Month:

 Season Total:

27 Days Since Last Rain Day

0.00 in

0.000 in

0.00 in

0.00 in

0.00 in

42.44 in

Updated Time

Updated: 6/22/18  4:04am

(Updated  sec ago)

Humidity & Barometer

 Humidity:

 Wetbulb:

 Dew Point:

 Barometer:

36% 

52.5°F 

37.2°F 

29.919 inHg 

 Baro Trend:  Steady 
Northern Calif
Preparedness
Fire 
Level 

    UV Index  

(Current UV)
0.0  None
(Todays High) @ 12:00am
0.0   None

National Weather Service Forecast

Overnight

Overnight: Clear
Clear
Friday

Friday: Sunny
Sunny
Friday
Night
Friday Night: Clear
Clear
Saturday

Saturday: Sunny
Sunny
Saturday
Night
Saturday Night: Clear
Clear
Sunday

Sunday: Sunny
Sunny
Lo 62 °F Hi 93 °F Lo 68 °F Hi 95 °F Lo 70 °F Hi 96 °F

Foresthill Probe 2 Stats  
Foresthill Probe 2: is located on Thomas Street
at 3000 feet. The main Foresthill Weather site
is located on Melody ln at the 2860 foot elevation

Calm
63.1°F
17.3°C
Temp Rate:
-1.2°F
Calm
Gusting to
1.0 mph
(Humidity)
41%
Wind from SE
124°  SE
Updated: 22/06/18 - 04:00:25
 Todays High: 67.2°F 00:00
 Todays Low: 63.1°F 03:57
 Rain Today: 0.00 in
 Season Total: 44.79 in

Foresthill Wx: Monthly,Yearly, Highs and Lows 

Foresthill  
This Weather Data is coming from the main Foresthill
Weather site located on Melody ln at the 2860 foot
elevation
Not Foresthill Probe 2
Weather Data
Month
  High
Month
  Low
Year
High
Year
Low
Temp 87.4°F
6/13/18
46.3°F
6/1/18
87.4°F
6/13/18
21.9°F
2/23/18
Humidity 86%
6/17/18
16%
6/21/18
100%
1/8/18
15%
2/10/18
Heat Index 84.7°F
6/13/18
48.2°F
6/1/18
84.7°F
6/13/18
27.1°F
2/20/18
Wind Chill 87.4°F
6/13/18
44.3°F
6/10/18
87.4°F
6/13/18
9.2°F
2/23/18
Wind Gust 22 mph
6/15/18
0 mph
6/1/18
43 mph
3/1/18
0 mph
1/1/18
Barometer 30.11 in
6/1/18
29.60 in
6/16/18
30.55 in
1/27/18
29.60 in
6/16/18
ET 0.24 in
6/13/18
0.00 in
6/1/18
0.24 in
6/13/18
0.00 in
1/1/18
Dew Point 58.6°F
6/20/18
27.9°F
6/10/18
58.6°F
6/20/18
7.6°F
2/11/18
Pacific Satellite US Radar Satellite Imagery Sacramento,CA.  (click to enlarge)
NWS Weather Forecast - Summary
Updated: Friday, June 22, 2018 - 2:30am PDT
Red Flag Warning for Gusty Wind and Low Humidity for the Sacramento and Northern San Joaquin Valleys and Adjacent Foothills Tonight into Sunday
Current Interstate Highway Conditions for I-80 & US-50

[I 80: IN THE SAN FRANCISCO BAY AREA - SOLANO CO]
no traffic restrictions are reported for this area.

[I 80: IN THE NORTHERN CALIFORNIA AREA & SIERRA NEVADA]
no traffic restrictions are reported for this area.

[US 50: IN THE SACRAMENTO VALLEY & THE LAKE TAHOE BASIN]
the eastbound connector to northbound & southbound i 5 /in sacramento/ (sacramento co)   Is closed from 9:00pm each night to 5:00am each morning monday thru saturday thru 6/23/18 - due to permit work - a detour is available
NWS Weather Forecast: Overnight and Friday (Updated: Fri, 22-Jun-2018 3:09am PDT)
Overnight

Overnight: Clear
Clear

Lo 62 °F
NWS forecast: Clear, with a low around 62. East northeast wind around 5 mph.
Friday

Friday: Sunny
Sunny

Hi 93 °F
NWS forecast: Sunny, with a high near 93. West wind 3 to 7 mph.
YR.NO 10 Day Weather forecast
Last update: 06/22/2018 @ 00:34
Next update: 06/22/2018 @ 13:00
Provided by: 22
      Temperature Precipitation Pressure Wind  
Today
06/22/2018
02:00 06:00 55°F   29.92 inHg Light breeze from east-northeast 6 mph
  06:00 12:00 54°F   29.93 inHg Light breeze from east-northeast 7 mph
  12:00 18:00 91°F   29.88 inHg Light breeze from west 7 mph
  18:00 00:00 91°F   29.77 inHg Light breeze from west 7 mph
    (Click to enlarge)
meteogram

    Forecast for next 9 days

      Temperature Precip Pressure Wind  
Saturday
06/23/2018
00:00 06:00 63°F   29.78 inHg Light breeze from east-northeast 4 mph
  06:00 12:00 61°F   29.74 inHg Gentle breeze from east-northeast 9 mph
  12:00 18:00 93°F   29.72 inHg Gentle breeze from west 9 mph
  18:00 00:00 93°F   29.65 inHg Light breeze from west-northwest 6 mph
      Temperature Precip Pressure Wind  
Sunday
06/24/2018
00:00 06:00 66°F   29.68 inHg Gentle breeze from east-northeast 8 mph
  06:00 12:00 73°F   29.69 inHg Moderate breeze from east-northeast 13 mph
  12:00 18:00 93°F   29.74 inHg Gentle breeze from west-southwest 8 mph
  17:00 23:00 91°F   29.75 inHg Gentle breeze from southwest 8 mph
  23:00 05:00 70°F   29.82 inHg Light breeze from east-southeast 4 mph
      Temperature Precip Pressure Wind  
Monday
06/25/2018
05:00 11:00 57°F   29.83 inHg Light breeze from east-southeast 4 mph
  11:00 17:00 79°F   29.91 inHg Light breeze from south-southwest 7 mph
  17:00 23:00 84°F   29.87 inHg Light breeze from southwest 7 mph
  23:00 05:00 66°F   29.89 inHg Light air from east 3 mph
      Temperature Precip Pressure Wind  
Tuesday
06/26/2018
05:00 11:00 59°F   29.86 inHg Light breeze from east 5 mph
  11:00 17:00 86°F   29.89 inHg Light breeze from southwest 7 mph
  17:00 23:00 88°F   29.85 inHg Gentle breeze from southwest 8 mph
  23:00 05:00 66°F   29.89 inHg Light breeze from east 4 mph
      Temperature Precip Pressure Wind  
Wednesday
06/27/2018
05:00 11:00 57°F   29.87 inHg Light breeze from east 4 mph
  11:00 17:00 82°F   29.89 inHg Light breeze from south-southwest 7 mph
  17:00 23:00 82°F   29.85 inHg Gentle breeze from south-southwest 8 mph
  23:00 05:00 64°F   29.88 inHg Light breeze from east-southeast 4 mph
      Temperature Precip Pressure Wind  
Thursday
06/28/2018
05:00 11:00 57°F   29.85 inHg Light air from southeast 2 mph
  11:00 17:00 73°F   29.88 inHg Light breeze from south-southwest 7 mph
  17:00 23:00 72°F   29.83 inHg Light breeze from south-southwest 4 mph
  23:00 05:00 61°F   29.84 inHg Light air from south-southeast 3 mph
      Temperature Precip Pressure Wind  
Friday
06/29/2018
05:00 11:00 52°F   29.82 inHg Light air from east-northeast 2 mph
  11:00 17:00 72°F   29.84 inHg Light breeze from west-southwest 7 mph
  17:00 23:00 75°F   29.77 inHg Light breeze from west-southwest 6 mph
  23:00 05:00 61°F   29.80 inHg Light breeze from southeast 4 mph
      Temperature Precip Pressure Wind  
Saturday
06/30/2018
05:00 11:00 52°F   29.79 inHg Light air from east-northeast 2 mph
  11:00 17:00 73°F   29.81 inHg Light breeze from west-southwest 6 mph
  17:00 23:00 77°F   29.77 inHg Light breeze from west 6 mph
  23:00 05:00 59°F   29.80 inHg Light breeze from east 4 mph
      Temperature Precip Pressure Wind  
Sunday
07/01/2018
05:00 11:00 52°F   29.78 inHg Gentle breeze from east-northeast 8 mph
  11:00 17:00 79°F   29.81 inHg Gentle breeze from west-southwest 8 mph

NOAA Local Storm Report
VIVIAN 7 NW   ( More )
DATE
06/19/2018
TIME
2:05 PM
COUNTY
LYMAN
STATE
SD
GEOGRAPHIC
44.02N 100.35W
SOURCE
MESONET
HEAVY RAIN MEASURED AT 2.05 INCH
72 hour rainfall total. Mesonet station pres2r2, vivian 7 nw.

NOAA Local Storm Report
HILLHEAD 3 WSW   ( More )
DATE
06/19/2018
TIME
1:59 PM
COUNTY
MARSHALL
STATE
SD
GEOGRAPHIC
45.80N 97.45W
SOURCE
MESONET
HEAVY RAIN MEASURED AT 2.22 INCH
72 hour rainfall total. Mesonet station mrls2, hillhead 3 wsw.

NOAA Local Storm Report
OKATON 3 NW   ( More )
DATE
06/19/2018
TIME
7:30 AM
COUNTY
JONES
STATE
SD
GEOGRAPHIC
43.91N 100.94W
SOURCE
COCORAHS
HEAVY RAIN MEASURED AT 2.28 INCH
72 hour rainfall total. Cocorahs station sd-jn-3, okaton 3 nw.

NOAA Local Storm Report
VEBLEN 8 W   ( More )
DATE
06/19/2018
TIME
7:00 AM
COUNTY
MARSHALL
STATE
SD
GEOGRAPHIC
45.86N 97.46W
SOURCE
COCORAHS
HEAVY RAIN MEASURED AT 2.12 INCH
72 hour rainfall total. Cocorahs station sd-mr-10, veblen 8 w.

NOAA Local Storm Report
PRESHO 12 NNE   ( More )
DATE
06/19/2018
TIME
7:00 AM
COUNTY
LYMAN
STATE
SD
GEOGRAPHIC
44.07N 100.01W
SOURCE
COCORAHS
HEAVY RAIN MEASURED AT 2.10 INCH
72 hour rainfall total. Cocorahs station sd-ly-6, presho 12 nne.

NOAA Local Storm Report
HIGHMORE 12 N   ( More )
DATE
06/19/2018
TIME
7:00 AM
COUNTY
HYDE
STATE
SD
GEOGRAPHIC
44.70N 99.41W
SOURCE
COCORAHS
HEAVY RAIN MEASURED AT 2.62 INCH
72 hour rainfall total. Cocorahs station sd-hy-1, highmore 12 n.
How Close Are We To this Month's Temperature Record ?
Updated Friday, Jun 22, 2018- 4:00:00 AM

Current Temperature: 64.8°F

June's High: Temperature Record 95.1°F - Set on Sat, Jun 8, 2013 - 3:58:00 PM
We are currently 30.3°F Less than this Month's record High

June's Low: Temperature Record 40.8°F - Set on Tue, Jun 5, 2012 - 5:41:00 AM
We are currently 24°F More than this Month's record Low

Weather History For Friday, June 22, 2018


On this Day - In Weather History ...
Data courtesy of weatherforyou.com
powered by Cumulus v1.9.3 (1059)
Ambient Weather VWS v14.00
Top Contact Website Map Copyright © 2007 - 2018 Foresthillweather.com Never base important decisions on this or any weather information obtained from the Internet